| time (UTC) | temp F | wind direction | speed MPH | gust MPH | rain 1hr in | rain 24hr in | rain mn in | humidity % | barometer mb |
| 20260505185216 | 58 | 282 | 8.0 | 9.0 | 0.00 | 0.00 | 0.00 | 37 | 1010.5 |
| 20260505184022 | 58 | 270 | 11.0 | 15.0 | 0.00 | 0.00 | 0.00 | 39 | 1010.5 |
| 20260505183040 | 58 | 298 | 9.0 | 11.0 | 0.00 | 0.00 | 0.00 | 38 | 1010.5 |
| 20260505182021 | 56 | 278 | 11.0 | 13.0 | 0.00 | 0.00 | 0.00 | 39 | 1010.5 |
| 20260505181021 | 57 | 280 | 11.0 | 14.0 | 0.00 | 0.00 | 0.00 | 41 | 1010.4 |
| 20260505180039 | 56 | 317 | 10.0 | 11.0 | 0.00 | 0.00 | 0.00 | 42 | 1010.2 |
| 20260505175020 | 55 | 287 | 11.0 | 13.0 | 0.00 | 0.00 | 0.00 | 42 | 1010.2 |
| 20260505174040 | 55 | 293 | 10.0 | 12.0 | 0.00 | 0.00 | 0.00 | 44 | 1010.2 |
| 20260505173020 | 54 | 319 | 13.0 | 15.0 | 0.00 | 0.00 | 0.00 | 45 | 1010.3 |
| 20260505172019 | 55 | 280 | 10.0 | 12.0 | 0.00 | 0.00 | 0.00 | 42 | 1010.2 |
| 20260505171019 | 56 | 289 | 11.0 | 16.0 | 0.00 | 0.00 | 0.00 | 42 | 1010.2 |
| 20260505170038 | 56 | 298 | 9.0 | 15.0 | 0.00 | 0.00 | 0.00 | 43 | 1010.2 |
| 20260505165037 | 56 | 294 | 10.0 | 13.0 | 0.00 | 0.00 | 0.00 | 42 | 1010.0 |
| 20260505164037 | 55 | 286 | 13.0 | 17.0 | 0.00 | 0.00 | 0.00 | 43 | 1009.9 |
| 20260505163036 | 56 | 287 | 11.0 | 16.0 | 0.00 | 0.00 | 0.00 | 43 | 1009.7 |
| 20260505162056 | 54 | 282 | 13.0 | 17.0 | 0.00 | 0.00 | 0.00 | 44 | 1010.0 |
| 20260505161131 | 55 | 291 | 11.0 | 15.0 | 0.00 | 0.00 | 0.00 | 45 | 1010.1 |
| 20260505153034 | 53 | 285 | 12.0 | 16.0 | 0.00 | 0.00 | 0.00 | 48 | 1010.0 |
| 20260505152130 | 53 | 280 | 10.0 | 12.0 | 0.00 | 0.00 | 0.00 | 46 | 1010.0 |
| 20260505151033 | 54 | 283 | 8.0 | 12.0 | 0.00 | 0.00 | 0.00 | 45 | 1010.1 |
| 20260505123800 | 48 | 321 | 3.0 | 4.0 | 0.00 | 0.00 | 0.00 | 60 | 1010.0 |
| 20260505122607 | 0 | 303 | 4.0 | 4.0 | 0.00 | 0.00 | 0.00 | ||
| 20260505115607 | 47 | 290 | 6.0 | 6.0 | 0.00 | 0.00 | 0.00 | 61 | 1009.8 |
| 20260505114125 | 46 | 295 | 6.0 | 7.0 | 0.00 | 0.00 | 0.00 | 60 | 1009.8 |
| 20260505113106 | 46 | 299 | 5.0 | 6.0 | 0.00 | 0.00 | 0.00 | 59 | 1009.0 |
| 20260505112048 | 46 | 358 | 5.0 | 7.0 | 0.00 | 0.00 | 0.00 | 59 | 1008.1 |
| 20260505111143 | 46 | 317 | 6.0 | 7.0 | 0.00 | 0.00 | 0.00 | 61 | 1008.3 |
| 20260505110529 | 46 | 7.0 | 7.0 | 0.00 | 0.00 | 0.00 | 62 | 1008.7 | |
| 20260505102028 | 46 | 352 | 4.0 | 5.0 | 0.00 | 0.00 | 0.00 | 68 | 1008.3 |
| 20260505101028 | 46 | 11 | 3.0 | 5.0 | 0.00 | 0.00 | 0.00 | 67 | 1008.0 |
| 20260505100028 | 46 | 12 | 4.0 | 6.0 | 0.00 | 0.00 | 0.00 | 66 | 1008.1 |
| 20260505095028 | 47 | 1 | 4.0 | 6.0 | 0.00 | 0.00 | 0.00 | 65 | 1007.8 |
| 20260505094028 | 47 | 35 | 3.0 | 5.0 | 0.00 | 0.00 | 0.00 | 65 | 1007.4 |
| 20260505093048 | 47 | 20 | 4.0 | 6.0 | 0.00 | 0.00 | 0.00 | 65 | 1007.4 |
| 20260505092108 | 47 | 1 | 3.0 | 5.0 | 0.00 | 0.00 | 0.00 | 64 | 1008.0 |
| 20260505091027 | 47 | 8 | 5.0 | 8.0 | 0.00 | 0.00 | 0.00 | 63 | 1007.9 |
| 20260505090028 | 47 | 344 | 7.0 | 11.0 | 0.00 | 0.00 | 0.00 | 63 | 1007.9 |
| 20260505085027 | 47 | 6 | 5.0 | 7.0 | 0.00 | 0.00 | 0.00 | 63 | 1007.3 |
| 20260505084028 | 48 | 342 | 6.0 | 12.0 | 0.00 | 0.00 | 0.00 | 63 | 1007.2 |
| 20260505083027 | 48 | 9 | 6.0 | 9.0 | 0.00 | 0.00 | 0.00 | 63 | 1006.9 |
| 20260505082027 | 49 | 37 | 4.0 | 6.0 | 0.00 | 0.00 | 0.00 | 65 | 1006.4 |
| 20260505081027 | 49 | 338 | 5.0 | 8.0 | 0.00 | 0.00 | 0.00 | 64 | 1006.3 |
| 20260505080027 | 50 | 347 | 6.0 | 7.0 | 0.00 | 0.00 | 0.00 | 63 | 1005.9 |
| 20260505075047 | 50 | 306 | 7.0 | 9.0 | 0.00 | 0.00 | 0.00 | 61 | 1005.9 |
| 20260505074046 | 50 | 353 | 6.0 | 11.0 | 0.00 | 0.00 | 0.00 | 61 | 1005.3 |
| 20260505073045 | 51 | 359 | 7.0 | 10.0 | 0.00 | 0.00 | 0.00 | 60 | 1005.0 |
| 20260505072026 | 51 | 356 | 7.0 | 14.0 | 0.00 | 0.00 | 0.00 | 60 | 1005.3 |
| 20260505071026 | 52 | 3 | 8.0 | 13.0 | 0.00 | 0.00 | 0.00 | 59 | 1005.4 |
| 20260505070026 | 52 | 15 | 8.0 | 12.0 | 0.00 | 0.00 | 0.00 | 60 | 1005.1 |
| 20260505065026 | 53 | 356 | 7.0 | 10.0 | 0.00 | 0.00 | 0.00 | 60 | 1005.2 |
| 20260505064026 | 53 | 347 | 7.0 | 11.0 | 0.00 | 0.00 | 0.00 | 59 | 1004.6 |
| 20260505063046 | 54 | 330 | 4.0 | 6.0 | 0.00 | 0.00 | 0.00 | 58 | 1004.5 |
| 20260505062025 | 55 | 343 | 6.0 | 8.0 | 0.00 | 0.00 | 0.00 | 57 | 1004.3 |
| 20260505061025 | 55 | 329 | 7.0 | 11.0 | 0.00 | 0.00 | 0.00 | 56 | 1004.3 |
| 20260505060025 | 55 | 337 | 7.0 | 11.0 | 0.00 | 0.00 | 0.00 | 55 | 1003.9 |
| 20260505055045 | 56 | 326 | 9.0 | 11.0 | 0.00 | 0.00 | 0.00 | 54 | 1004.1 |
| 20260505054024 | 57 | 325 | 9.0 | 13.0 | 0.00 | 0.00 | 0.00 | 53 | 1004.0 |
| 20260505053024 | 57 | 316 | 9.0 | 14.0 | 0.00 | 0.00 | 0.00 | 51 | 1004.0 |
| 20260505052025 | 58 | 310 | 7.0 | 10.0 | 0.00 | 0.00 | 0.00 | 50 | 1003.7 |
| 20260505051024 | 58 | 324 | 8.0 | 10.0 | 0.00 | 0.00 | 0.00 | 50 | 1003.6 |
| 20260505041523 | 60 | 297 | 12.0 | 20.0 | 0.00 | 0.00 | 0.00 | 45 | 1003.0 |
| 20260505040523 | 60 | 295 | 9.0 | 12.0 | 0.00 | 0.00 | 0.00 | 45 | 1002.9 |
| 20260505040005 | 61 | 302 | 14.0 | 18.0 | 0.00 | 0.00 | 0.00 | 45 | 1002.6 |
| 20260505034542 | 61 | 290 | 10.0 | 13.0 | 0.00 | 0.00 | 0.00 | 46 | 1002.6 |
| 20260505033522 | 61 | 292 | 9.0 | 13.0 | 0.00 | 0.00 | 0.00 | 47 | 1002.5 |
| 20260505032541 | 62 | 338 | 8.0 | 9.0 | 0.00 | 0.00 | 0.00 | 49 | 1002.4 |
| 20260505031542 | 62 | 315 | 7.0 | 9.0 | 0.00 | 0.00 | 0.00 | 53 | 1002.3 |
| 20260505030540 | 62 | 310 | 5.0 | 8.0 | 0.00 | 0.00 | 0.00 | 52 | 1002.1 |
| 20260505025522 | 63 | 313 | 7.0 | 10.0 | 0.00 | 0.00 | 0.00 | 50 | 1002.0 |
| 20260505024542 | 64 | 327 | 9.0 | 11.0 | 0.00 | 0.00 | 0.00 | 49 | 1002.0 |
| 20260505023521 | 66 | 303 | 13.0 | 20.0 | 0.00 | 0.00 | 0.00 | 47 | 1001.8 |
| 20260505022521 | 67 | 302 | 13.0 | 16.0 | 0.00 | 0.00 | 0.00 | 47 | 1001.5 |
| 20260505022117 | 68 | 305 | 13.0 | 15.0 | 0.00 | 0.00 | 0.00 | 47 | 1001.5 |
| 20260505020521 | 68 | 305 | 8.0 | 10.0 | 0.00 | 0.00 | 0.00 | 48 | 1001.1 |
| 20260505015735 | 69 | 14.0 | 14.0 | 0.00 | 0.00 | 0.00 | 47 | 1000.6 | |
| 20260505014020 | 70 | 338 | 10.0 | 12.0 | 0.00 | 0.00 | 0.00 | 52 | 1000.3 |
| 20260505013020 | 70 | 315 | 10.0 | 11.0 | 0.00 | 0.00 | 0.00 | 55 | 1000.1 |